Regional Weather Roundup
Issued by NWS

Home | Current Version | Previous Version | Graphics & Text | Print | Product List | Glossary On
Versions: 1 2 3 4 5 6 7 8 9 10 11 12 13 14 15 16 17 18 19 20 21 22 23 24 25 26 27 28 29 30 31 32 33 34 35 36 37 38 39 40 41 42 43 44 45 46 47 48 49 50
000
ASUS43 KBIS 260410
RWRND

NORTH DAKOTA REGIONAL WEATHER ROUNDUP
NATIONAL WEATHER SERVICE BISMARCK ND
1100 PM CDT SAT OCT 25 2014

NOTE: "FAIR" INDICATES FEW OR NO CLOUDS BELOW 12,000 FEET WITH NO
SIGNIFICANT WEATHER AND/OR OBSTRUCTIONS TO VISIBILITY.


NDZ001>003-009>011-017-260500-
NORTHWEST NORTH DAKOTA

CITY           SKY/WX    TMP DP  RH WIND       PRES   REMARKS
WILLISTON      MOCLDY    54  31  41 SE12      29.80F
MINOT          PTCLDY    38  29  70 E8        29.90F
MINOT AFB      PTCLDY    37  32  81 SE8       29.89F
$$

NDZ018>021-031>035-040>046-260500-
SOUTHWEST NORTH DAKOTA

CITY           SKY/WX    TMP DP  RH WIND       PRES   REMARKS
BISMARCK       CLEAR     41  30  65 SE6       29.94F
DICKINSON      CLEAR     50  30  46 SE16      29.81F
GARRISON         N/A     49  32  52 SE8       29.90F
HETTINGER ARPT CLEAR     50  29  44 SE14      29.86F
$$

NDZ004>008-012>016-024-026-027-054-260500-
NORTHEAST NORTH DAKOTA

CITY           SKY/WX    TMP DP  RH WIND       PRES   REMARKS
GRAND FORKS    CLEAR     35  25  66 SW5       29.99F
GRND FRKS AFB  CLEAR     37  24  59 SW5       29.99F
DEVILS LAKE    CLEAR     37  27  65 SE3       29.96F
$$

NDZ022-023-025-028>030-036>039-047>053-260500-
SOUTHEAST NORTH DAKOTA

CITY           SKY/WX    TMP DP  RH WIND       PRES   REMARKS
FARGO          CLEAR     39  24  55 S3        30.02F
JAMESTOWN      CLEAR     41  29  62 SE7       29.99F
$$




USA.gov is the U.S. government's official web portal to all federal, state and local government web resources and services.